FW3192 Weather Reports


Display with metric or nautical units.
time (UTC)temp
F
wind
direction
speed
MPH
gust
MPH
rain 1hr
in
rain 24hr
in
rain mn
in
humidity
%
barometer
mb
20260831163028 50 40 7.0 10.0 0.00 0.01 0.00 82 1020.2
20260831161507 49 47 7.0 10.0 0.00 0.01 0.00 82 1020.5
20260831160005 49 45 6.0 9.0 0.00 0.01 0.00 83 1020.7
20260831154553 50 44 6.0 9.0 0.00 0.01 0.00 82 1021.1
20260831153143 50 33 6.0 9.0 0.00 0.01 0.00 81 1021.3
20260831151541 50 40 6.0 9.0 0.00 0.01 0.00 81 1021.5
20260831150050 50 36 7.0 10.0 0.00 0.01 0.00 81 1021.5
20260831144536 50 36 6.0 9.0 0.00 0.01 0.00 82 1021.6
20260831143039 50 21 7.0 9.0 0.00 0.01 0.00 82 1021.9
20260831141530 50 41 5.0 7.0 0.00 0.01 0.00 83 1022.1
20260831140030 50 37 5.0 7.0 0.00 0.01 0.00 84 1022.3
20260831134520 50 36 3.0 5.0 0.00 0.01 0.00 85 1022.5
20260831133007 50 45 2.0 5.0 0.00 0.01 0.00 84 1022.8
20260831131504 50 33 4.0 7.0 0.00 0.01 0.00 83 1023.1
20260831130001 51 36 2.0 7.0 0.00 0.01 0.00 83 1023.2
20260831124602 51 38 5.0 7.0 0.00 0.01 0.00 82 1023.3
20260831123055 52 45 4.0 8.0 0.00 0.01 0.00 80 1023.4
20260831121557 53 28 7.0 11.0 0.00 0.01 0.00 79 1023.4
20260831120050 53 23 6.0 8.0 0.00 0.01 0.00 80 1023.4
20260831114552 53 31 4.0 6.0 0.00 0.01 0.00 80 1023.5
20260831113030 54 35 4.0 6.0 0.00 0.01 0.00 79 1023.5
20260831111528 55 28 5.0 8.0 0.00 0.01 0.00 79 1023.5
20260831110029 55 19 3.0 5.0 0.00 0.01 0.01 80 1023.6
20260831104535 55 16 3.0 4.0 0.00 0.01 0.01 79 1023.6
20260831103025 56 40 3.0 5.0 0.00 0.01 0.01 78 1023.5
20260831101534 57 45 3.0 4.0 0.00 0.01 0.01 77 1023.7
20260831100022 58 45 3.0 5.0 0.00 0.01 0.01 76 1023.7
20260831094522 59 37 3.0 5.0 0.00 0.01 0.01 75 1023.8
20260831093009 60 68 4.0 6.0 0.00 0.01 0.01 74 1023.8
20260831091514 60 15 2.0 3.0 0.00 0.01 0.01 75 1023.8
20260831090008 61 194 0.0 0.0 0.00 0.01 0.01 78 1023.8
20260831084512 62 194 1.0 2.0 0.00 0.01 0.01 78 1023.8
20260831083007 62 223 0.0 3.0 0.00 0.01 0.01 76 1023.8
20260831081507 63 228 2.0 4.0 0.00 0.01 0.01 76 1023.9
20260831080006 65 235 1.0 3.0 0.00 0.01 0.01 73 1023.9
20260831074506 65 238 2.0 5.0 0.00 0.01 0.01 72 1023.7
20260831073051 65 234 1.0 6.0 0.00 0.01 0.01 73 1023.6
20260831071551 66 238 0.0 6.0 0.00 0.01 0.01 71 1023.8
20260831070049 66 210 2.0 7.0 0.00 0.01 0.01 71 1023.8
20260831064553 69 282 4.0 7.0 0.00 0.01 0.01 61 1023.9
20260831063046 67 258 0.0 6.0 0.00 0.01 0.01 67 1024.1
20260831061545 67 242 2.0 7.0 0.00 0.01 0.01 66 1024.3
20260831060044 67 240 2.0 8.0 0.00 0.01 0.01 68 1024.5
20260831054550 69 310 2.0 10.0 0.00 0.01 0.01 62 1024.5
20260831053024 70 17 7.0 11.0 0.00 0.01 0.01 49 1024.6
20260831051530 70 14 6.0 13.0 0.00 0.01 0.01 52 1024.7
20260831050006 70 50 5.0 11.0 0.00 0.01 0.01 51 1024.8
20260831044503 70 359 6.0 11.0 0.00 0.01 0.01 55 1025.0
20260831043059 70 25 5.0 11.0 0.00 0.01 0.01 57 1025.3
20260831041612 70 17 7.0 14.0 0.00 0.01 0.01 56 1025.6
20260831040053 69 332 4.0 12.0 0.00 0.01 0.01 57 1025.9
20260831034550 69 348 6.0 13.0 0.00 0.01 0.01 57 1026.4
20260831033045 69 342 7.0 11.0 0.00 0.01 0.01 60 1026.8
20260831031542 68 341 2.0 12.0 0.00 0.01 0.01 60 1027.1
20260831030024 68 352 5.0 10.0 0.00 0.01 0.01 62 1027.4
20260831024521 67 317 5.0 11.0 0.00 0.01 0.01 64 1027.7
20260831023017 67 19 7.0 11.0 0.00 0.01 0.01 62 1028.1
20260831021514 66 7 5.0 13.0 0.00 0.01 0.01 63 1028.4
20260831020010 65 33 6.0 10.0 0.00 0.01 0.01 63 1028.6
20260831014505 64 344 5.0 9.0 0.00 0.01 0.01 69 1028.9
20260831013001 64 12 5.0 8.0 0.00 0.01 0.01 69 1029.2
20260831011557 63 338 5.0 8.0 0.00 0.01 0.01 72 1029.4
20260831010035 62 24 4.0 11.0 0.00 0.01 0.01 74 1029.5
20260831004535 60 10 6.0 10.0 0.00 0.01 0.01 75 1029.6
20260831003013 59 10 7.0 10.0 0.00 0.01 0.01 79 1029.7
20260831001510 58 327 5.0 8.0 0.00 0.01 0.01 85 1029.8
20260831000007 55 349 5.0 8.0 0.00 0.01 0.01 94 1029.9
20260830234504 53 37 5.0 8.0 0.00 0.01 0.01 95 1029.9
20260830233101 52 52 2.0 7.0 0.00 0.01 0.01 95 1030.0
20260830231604 50 20 5.0 7.0 0.00 0.01 0.01 95 1030.1
20260830230159 49 23 3.0 6.0 0.00 0.01 0.01 96 1030.1
20260830224601 48 353 2.0 4.0 0.00 0.01 0.01 96 1030.3
20260830223046 47 31 1.0 2.0 0.00 0.01 0.01 96 1030.3
20260830221546 45 358 0.0 1.0 0.00 0.01 0.01 96 1030.4
20260830220043 45 358 0.0 1.0 0.01 0.01 0.01 97 1030.2
20260830214542 43 358 0.0 0.0 0.01 0.01 0.01 96 1030.1
20260830213041 42 358 0.0 1.0 0.01 0.01 0.01 96 1030.0
20260830211541 41 358 1.0 5.0 0.01 0.01 0.01 96 1030.0
20260830210040 41 289 0.0 5.0 0.00 0.00 0.00 96 1030.0
20260830204638 41 31 2.0 3.0 0.00 0.00 0.00 96 1029.9
20260830203012 41 33 1.0 2.0 0.00 0.00 0.00 95 1029.9
20260830201514 41 343 0.0 2.0 0.00 0.00 0.00 95 1029.8
20260830200053 41 325 1.0 3.0 0.00 0.00 0.00 95 1029.7
20260830194552 42 6 2.0 2.0 0.00 0.00 0.00 95 1029.6
20260830193051 41 347 0.0 1.0 0.00 0.00 0.00 95 1029.5
20260830191554 42 48 2.0 3.0 0.00 0.00 0.00 95 1029.4
20260830190047 42 33 0.0 1.0 0.00 0.00 0.00 95 1029.5
20260830184545 42 18 1.0 3.0 0.00 0.00 0.00 94 1029.6
20260830183041 43 53 1.0 3.0 0.00 0.00 0.00 94 1029.7
20260830181539 43 38 0.0 0.0 0.00 0.00 0.00 94 1029.8
20260830180031 43 77 0.0 0.0 0.00 0.01 0.00 94 1029.9
20260830174520 43 77 0.0 0.0 0.00 0.01 0.00 93 1029.9
20260830173057 43 38 0.0 0.0 0.00 0.01 0.00 93 1030.1
20260830171549 44 38 0.0 1.0 0.00 0.01 0.00 93 1030.2
20260830170030 44 66 0.0 2.0 0.00 0.01 0.00 93 1030.2
20260830164526 45 22 1.0 2.0 0.00 0.01 0.00 94 1030.5